EW6612 Weather Reports


Display with metric or nautical units.
time (UTC)temp
F
wind
direction
speed
MPH
gust
MPH
rain 1hr
in
rain 24hr
in
rain mn
in
humidity
%
barometer
mb
20180918224902 61 292 2.0 3.0 0.00 0.00 0.00 93 1021.2
20180918223853 61 292 2.0 4.0 0.00 0.00 0.00 93 1021.2
20180918222854 61 292 2.0 3.0 0.00 0.00 0.00 92 1021.2
20180918221854 61 292 1.0 3.0 0.00 0.00 0.00 92 1021.2
20180918220849 61 328 1.0 2.0 0.00 0.00 0.00 92 1021.1
20180918215840 62 328 0.0 2.0 0.00 0.00 0.00 91 1021.0
20180918214825 62 328 1.0 3.0 0.00 0.00 0.00 91 1021.0
20180918213816 63 328 2.0 5.0 0.00 0.00 0.00 92 1020.9
20180918212817 63 338 3.0 7.0 0.00 0.00 0.00 91 1021.1
20180918211800 63 355 3.0 6.0 0.00 0.00 0.00 91 1020.9
20180918210800 64 314 3.0 8.0 0.00 0.00 0.00 91 1020.8
20180918205756 64 281 2.0 4.0 0.00 0.00 0.00 90 1020.8
20180918204759 64 298 3.0 5.0 0.00 0.00 0.00 90 1020.6
20180918203755 65 327 4.0 7.0 0.00 0.00 0.00 90 1020.5
20180918202755 65 343 3.0 7.0 0.00 0.00 0.00 90 1020.5
20180918201748 65 12 3.0 8.0 0.00 0.00 0.00 90 1020.2
20180918200748 65 16 3.0 9.0 0.00 0.00 0.00 90 1020.3
20180918195747 65 322 2.0 5.0 0.00 0.00 0.00 89 1020.2
20180918194748 65 344 2.0 4.0 0.00 0.00 0.00 89 1019.9
20180918193744 65 333 4.0 6.0 0.00 0.00 0.00 89 1019.8
20180918192739 66 342 5.0 9.0 0.00 0.00 0.00 88 1019.6
20180918191732 66 320 3.0 6.0 0.00 0.00 0.00 87 1019.5
20180918190730 66 327 4.0 8.0 0.00 0.00 0.00 87 1019.4
20180918185724 67 321 3.0 6.0 0.00 0.00 0.00 86 1019.2
20180918184727 67 355 4.0 5.0 0.00 0.00 0.00 86 1019.2
20180918183715 67 305 2.0 7.0 0.00 0.00 0.00 85 1019.2
20180918182706 67 319 4.0 9.0 0.00 0.00 0.00 84 1019.2
20180918181707 68 349 5.0 10.0 0.00 0.00 0.00 84 1019.1
20180918180701 68 332 5.0 10.0 0.00 0.00 0.00 83 1019.1
20180918175700 69 333 6.0 11.0 0.00 0.00 0.00 81 1019.2
20180918174700 70 296 8.0 13.0 0.00 0.00 0.00 79 1019.2
20180918173751 71 348 10.0 15.0 0.00 0.00 0.00 77 1019.2
20180918172712 72 325 8.0 13.0 0.00 0.00 0.00 75 1019.2
20180918171659 72 319 6.0 13.0 0.00 0.00 0.00 75 1019.0
20180918170659 72 347 10.0 18.0 0.00 0.00 0.00 73 1018.7
20180918165659 73 319 10.0 18.0 0.00 0.00 0.00 72 1018.7
20180918164659 74 318 9.0 17.0 0.00 0.00 0.00 71 1018.8
20180918163659 74 321 9.0 16.0 0.00 0.00 0.00 70 1018.8
20180918162659 74 355 11.0 19.0 0.00 0.00 0.00 70 1018.8
20180918161656 75 345 11.0 18.0 0.00 0.00 0.00 69 1018.7
20180918160657 75 322 11.0 22.0 0.00 0.00 0.00 68 1018.7
20180918155658 76 349 12.0 20.0 0.00 0.00 0.00 66 1018.6
20180918154655 76 307 10.0 19.0 0.00 0.00 0.00 66 1018.4
20180918153658 77 342 11.0 18.0 0.00 0.00 0.00 65 1018.3
20180918152652 77 324 10.0 17.0 0.00 0.00 0.00 65 1018.3
20180918151653 79 304 10.0 16.0 0.00 0.00 0.00 62 1018.2
20180918150653 79 342 8.0 14.0 0.00 0.00 0.00 63 1018.2
20180918145651 79 25 6.0 12.0 0.00 0.00 0.00 64 1018.2
20180918144651 79 306 8.0 12.0 0.00 0.00 0.00 63 1018.2
20180918143650 80 337 8.0 14.0 0.00 0.00 0.00 63 1018.3
20180918142658 79 301 7.0 13.0 0.00 0.00 0.00 64 1018.4
20180918141651 79 322 9.0 16.0 0.00 0.00 0.00 65 1018.4
20180918140647 78 300 8.0 15.0 0.00 0.00 0.00 66 1018.4
20180918135648 78 0 9.0 16.0 0.00 0.00 0.00 67 1018.4
20180918134646 78 15 7.0 12.0 0.00 0.00 0.00 66 1018.4
20180918133645 78 5 6.0 12.0 0.00 0.00 0.00 66 1018.4
20180918132645 78 309 8.0 13.0 0.00 0.00 0.00 66 1018.4
20180918131647 78 325 9.0 16.0 0.00 0.00 0.00 65 1018.5
20180918130645 79 304 7.0 14.0 0.00 0.00 0.00 64 1018.6
20180918125645 78 0 6.0 11.0 0.00 0.00 0.00 65 1018.6
20180918124645 78 311 7.0 13.0 0.00 0.00 0.00 66 1018.6
20180918123647 77 348 6.0 11.0 0.00 0.00 0.00 69 1018.7
20180918122643 77 346 5.0 11.0 0.00 0.00 0.00 68 1018.6
20180918121644 76 321 5.0 10.0 0.00 0.00 0.00 69 1018.8
20180918120640 76 0 3.0 9.0 0.00 0.00 0.00 69 1018.8
20180918115639 75 90 5.0 12.0 0.00 0.00 0.00 72 1018.8
20180918114637 76 349 4.0 10.0 0.00 0.00 0.00 71 1018.8
20180918113636 74 291 5.0 11.0 0.00 0.00 0.00 74 1019.0
20180918112643 74 17 4.0 9.0 0.00 0.00 0.00 74 1019.1
20180918111637 74 355 4.0 9.0 0.00 0.00 0.00 75 1019.1
20180918110636 73 53 3.0 6.0 0.00 0.00 0.00 76 1019.1
20180918105635 72 9 4.0 9.0 0.00 0.00 0.00 78 1019.1
20180918104710 71 355 5.0 10.0 0.00 0.00 0.00 80 1019.2
20180918103634 71 57 5.0 10.0 0.00 0.00 0.00 80 1019.3
20180918102635 71 5 4.0 9.0 0.00 0.00 0.00 81 1019.3
20180918101635 70 348 4.0 8.0 0.00 0.00 0.00 81 1019.4
20180918095635 70 13 4.0 9.0 0.00 0.00 0.00 81 1019.3
20180918094638 70 21 3.0 11.0 0.00 0.00 0.00 83 1019.2
20180918093630 69 92 2.0 4.0 0.00 0.00 0.00 87 1019.2
20180918092620 67 89 1.0 3.0 0.00 0.00 0.00 88 1019.3
20180918091617 66 90 0.0 2.0 0.00 0.00 0.00 90 1019.2
20180918090614 65 90 1.0 3.0 0.00 0.00 0.00 91 1019.2
20180918085611 65 90 1.0 2.0 0.00 0.00 0.00 92 1019.2
20180918084608 64 90 1.0 3.0 0.00 0.00 0.00 92 1019.1
20180918083608 64 91 1.0 2.0 0.00 0.00 0.00 92 1019.0
20180918082606 63 90 0.0 1.0 0.00 0.00 0.00 93 1019.0
20180918081603 63 91 1.0 3.0 0.00 0.00 0.00 93 1018.8
20180918080552 62 17 0.0 2.0 0.00 0.00 0.00 93 1018.8
20180918075551 62 17 0.0 2.0 0.00 0.00 0.00 93 1018.7
20180918074550 62 17 0.0 2.0 0.00 0.00 0.00 93 1018.7
20180918073552 62 17 1.0 3.0 0.00 0.00 0.00 92 1018.7
20180918072544 62 16 1.0 3.0 0.00 0.00 0.00 92 1018.7
20180918071544 62 15 1.0 3.0 0.00 0.00 0.00 92 1018.6
20180918070542 62 19 1.0 3.0 0.00 0.00 0.00 92 1018.6
20180918065547 62 17 1.0 2.0 0.00 0.00 0.00 92 1018.5
20180918064533 62 17 1.0 3.0 0.00 0.00 0.00 92 1018.4
20180918063529 62 0 1.0 2.0 0.00 0.00 0.00 92 1018.2
20180918062527 61 0 1.0 2.0 0.00 0.00 0.00 92 1018.1
20180918061532 61 0 1.0 2.0 0.00 0.00 0.00 92 1018.0
20180918060526 61 0 0.0 2.0 0.00 0.00 0.00 92 1017.7
20180918055526 61 0 1.0 2.0 0.00 0.00 0.00 91 1017.5
20180918053511 61 0 0.0 2.0 0.00 0.00 0.00 91 1017.5
20180918052502 61 0 1.0 3.0 0.00 0.00 0.00 91 1017.4
20180918051449 61 0 2.0 3.0 0.00 0.00 0.00 91 1017.5
20180918050444 61 0 3.0 5.0 0.00 0.00 0.00 91 1017.4
20180918045442 61 333 3.0 5.0 0.00 0.00 0.00 91 1017.3
20180918044445 61 327 2.0 5.0 0.00 0.00 0.00 91 1017.3
20180918043434 61 330 3.0 6.0 0.00 0.00 0.00 92 1017.3
20180918042424 61 5 1.0 2.0 0.00 0.00 0.00 92 1017.3
20180918041423 61 5 1.0 3.0 0.00 0.00 0.00 92 1017.2
20180918040420 61 19 1.0 3.0 0.00 0.00 0.00 92 1017.2
20180918035420 61 19 1.0 2.0 0.00 0.00 0.00 92 1017.1
20180918034417 61 19 2.0 4.0 0.00 0.00 0.00 92 1017.0
20180918033408 61 12 1.0 3.0 0.00 0.00 0.00 91 1017.1
20180918032402 61 12 1.0 3.0 0.00 0.00 0.00 91 1017.1
20180918031402 61 0 2.0 5.0 0.00 0.00 0.00 91 1017.0
20180918030402 61 13 1.0 3.0 0.00 0.00 0.00 91 1017.0
20180918025346 61 18 2.0 4.0 0.00 0.00 0.00 91 1017.0
20180918024340 61 341 4.0 8.0 0.00 0.00 0.00 91 1017.1
20180918023339 61 12 2.0 5.0 0.00 0.00 0.00 91 1017.1
20180918022333 61 317 3.0 7.0 0.00 0.00 0.00 91 1017.2
20180918021323 61 296 3.0 6.0 0.00 0.00 0.00 91 1017.3
20180918020324 61 324 2.0 5.0 0.00 0.00 0.00 91 1017.2
20180918015324 61 342 1.0 4.0 0.00 0.00 0.00 91 1017.3
20180918014318 61 338 3.0 6.0 0.00 0.00 0.00 91 1017.3
20180918013316 61 329 3.0 7.0 0.00 0.00 0.00 91 1017.4
20180918012311 61 298 1.0 3.0 0.00 0.00 0.00 91 1017.4
20180918011313 61 298 3.0 6.0 0.00 0.00 0.00 91 1017.5
20180918010257 61 291 2.0 4.0 0.00 0.00 0.00 91 1017.6
20180918005257 61 315 2.0 4.0 0.00 0.00 0.00 91 1017.6
20180918004256 61 355 2.0 4.0 0.00 0.00 0.00 91 1017.6
20180918003302 61 39 2.0 5.0 0.00 0.00 0.00 91 1017.6
20180918002248 61 306 3.0 5.0 0.00 0.00 0.00 91 1017.6
20180918001247 62 300 3.0 7.0 0.00 0.00 0.00 91 1017.6
20180918000247 62 307 3.0 6.0 0.00 0.00 0.00 91 1017.6
20180917235241 62 319 3.0 6.0 0.00 0.00 0.00 91 1017.5
20180917234235 62 311 3.0 6.0 0.00 0.00 0.00 91 1017.6
20180917233233 62 351 2.0 6.0 0.00 0.00 0.00 91 1017.5
20180917232233 62 320 3.0 5.0 0.00 0.00 0.00 91 1017.6
20180917231233 62 342 1.0 2.0 0.00 0.00 0.00 91 1017.5
20180917230215 62 342 1.0 4.0 0.00 0.00 0.00 91 1017.5